Location: Kikino
(54.4440°N, 112.0940°W)
Time: 19:24:06
(UTC+00:00)

A-11 Canister half - Pass Details

Date: 23 May 2024
Orbit: 1525 x 1683 km, 47.3° (Epoch: 12 June)

Event Time Altitude Azimuth Distance (km) Brightness Sun altitude
Rises 08:44:46 0° 273° (W) 4,747 11.4 -12.9°
Reaches altitude 10° 08:47:55 10° 269° (W) 3,782 10.8 -12.8°
Maximum altitude 08:57:02 51° 197° (SSW) 1,971 9.2 -12.3°
Drops below altitude 10° 09:06:28 10° 126° (SE) 3,895 11.0 -11.8°
Sets 09:09:45 0° 122° (ESE) 4,898 11.6 -11.6°
